DELTA 1 DEB, 21290

Orbit data source: Space-Track

DELTA 1 DEB, 21290 is space debris in SSO originally from a launch on Thu, 12 Jun 1975 UTC launched from the Air Force Western Test Range (AFWTR). Debris objects in space refer to the collection of defunct objects orbiting the Earth. Examples of debris include non-operational satellites, rocket bodies, and fragments generated from explosions, collisions, or faulty payload assembly.

Loading next visibility...
DELTA 1 DEB details
Identifier
21290, 1975-052AB
Orbit
SSO
Last TLE update3 days ago
Origin
Flag of USGSFC (US)
ManufacturerUnknown
MissionSpacecraft
Bus & MotorUnknown
MassUnknown
Launch date (UTC)
1975-06-12 (50 years ago)
Launch vehicleUnknown
Launch site
Air Force Western Test Range (AFWTR)
Object type
Payload
Rocket body
Debris
Shape & HBRUnknown
Radar Cross SectionSmall (<0.1 m²)

Expand to show TLE details & history

TLE from 3 days ago
0 DELTA 1 DEB
1 21290U 75052AB  24358.96790455  .00000056  00000-0  39750-3 0  9998
2 21290  99.5113   0.8261 0512971 207.2729 180.2255 12.43258816525707
Epoch: 2024-12-23T23:13Z
Definitive object data (Epoch: 2024-12-23T23:13:46.953Z)
Latitude27.10026°
Longitude-85.49796°
Altitude1,899.726 km
Speed6.762 km/s
True Right ascension23h 43m 43s
True Declination26° 58' 49"
Sunlit
Object was in daylight at TLE epoch
Visualization TLE readout
Latitude74.87937°
Longitude-116.6596°
Altitude1,715.479 km
Speed6.931 km/s
Apparent Right ascension23h 48m 06s
Apparent Declination29° 34' 24"
Sunlit
Object is in daylight
Visualization observer readout
Local Sidereal Time12:41:26
Azimuth12.278° NNE
Elevation-19.415°
Doppler factor1
Orbital elements
Apogee altitude1,893.871 km
Perigee altitude1,086.62 km
Semi-major axis7,868.383 km
Eccentricity0.0512971
Inclination99.5113°
RAAN0.8261°
Arg. of periapsis207.2729°
True anomaly180.20376°
Mean anomaly180.2255°
Eccentric anomaly180.2145°
Mean motion3.10967 °/min
BSTAR0.0003975
Orbital period115.77 mins
Loading maneuver chart data...
Loading historical data...
Loading historical data...
Loading historical data...
Loading historical data...
Loading historical data...
Loading historical data...
Loading historical data...

DELTA 1 DEB Visibility forecast

Observer location: undefined°, undefined

Span
Click to sort rows by Start time (UTC) header in descending order
Start Az.
Max El. time (UTC)
Max El. Az.
Max El.
End time (UTC)
End Az.
14 mins2024-12-26 13:31:47.108Z9.997° NNE2024-12-26 13:38:47.108Z314.445° NW43.142°2024-12-26 13:45:47.108Z207.212° SW
6 mins2024-12-26 15:28:47.108Z333.323° NNW2024-12-26 15:31:47.108Z309.782° NW13.881°2024-12-26 15:34:47.108Z285.516° WNW
16 mins2024-12-26 22:40:47.108Z114.158° SE2024-12-26 22:48:47.108Z56.463° ENE29.191°2024-12-26 22:56:47.108Z1.855° NNE
18 mins2024-12-27 00:32:47.108Z176.127° S2024-12-27 00:41:47.108Z263.522° W43.257°2024-12-27 00:50:47.108Z340.212° N
9 mins2024-12-27 02:32:47.108Z250.165° W2024-12-27 02:36:47.108Z274.303° WNW14.553°2024-12-27 02:41:47.108Z304.531° NW
13 mins2024-12-27 12:43:47.108Z23.922° NE2024-12-27 12:50:47.108Z110.872° ESE40.078°2024-12-27 12:56:47.108Z177.035° S
|